When you browse on this site, cookies collect data to enhance your experience and personalize the content and advertising you see.
Visit our Privacy Policy to learn more. By continuing to use the site, you agree to this use of cookies and data.
  • en France
  • Liste des pays
  • À 7 jours
  • Température de l'eau
  • Carte météo
  • Widgets météo
  • user-avatar
    Se connecter

    Météo par heure à Nuwebie

    Ce jour, 21 Août, Mercredi

    Heure Température Précipitation Vent Pression Humidité
    00:00 +21°C° 0 mm 2 m/s 690 mmHg 68%
    01:00 +21°C° 0 mm 2 m/s 690 mmHg 66%
    02:00 +20°C° 0 mm 2 m/s 690 mmHg 63%
    03:00 +20°C° 0 mm 2 m/s 690 mmHg 61%
    04:00 +20°C° 0 mm 2 m/s 689 mmHg 59%
    05:00 +19°C° 0 mm 2 m/s 689 mmHg 58%
    06:00 +23°C° 0 mm 2 m/s 690 mmHg 48%
    07:00 +25°C° 0 mm 2 m/s 691 mmHg 39%
    08:00 +28°C° 0 mm 3 m/s 691 mmHg 29%
    09:00 +30°C° 0 mm 3 m/s 691 mmHg 26%
    10:00 +33°C° 0 mm 4 m/s 691 mmHg 22%
    11:00 +35°C° 0 mm 5 m/s 692 mmHg 19%
    12:00 +36°C° 0 mm 5 m/s 691 mmHg 17%
    13:00 +37°C° 0 mm 5 m/s 691 mmHg 16%
    14:00 +39°C° 0 mm 5 m/s 691 mmHg 15%
    15:00 +37°C° 0 mm 5 m/s 690 mmHg 16%
    16:00 +36°C° 0 mm 6 m/s 690 mmHg 17%
    17:00 +36°C° 0 mm 7 m/s 690 mmHg 18%
    18:00 +33°C° 0 mm 6 m/s 689 mmHg 27%
    19:00 +29°C° 0 mm 5 m/s 689 mmHg 36%
    20:00 +26°C° 0 mm 5 m/s 689 mmHg 45%
    21:00 +25°C° 0 mm 4 m/s 689 mmHg 51%
    22:00 +23°C° 0 mm 4 m/s 689 mmHg 56%
    23:00 +22°C° 0 mm 3 m/s 689 mmHg 62%

    Demain, 22 Août, Jeudi

    Heure Température Précipitation Vent Pression Humidité
    00:00 +22°C° 0 mm 3 m/s 689 mmHg 61%
    01:00 +21°C° 0 mm 3 m/s 688 mmHg 61%
    02:00 +21°C° 0 mm 2 m/s 688 mmHg 60%
    03:00 +21°C° 0 mm 2 m/s 688 mmHg 59%
    04:00 +20°C° 0 mm 2 m/s 688 mmHg 57%
    05:00 +20°C° 0 mm 2 m/s 688 mmHg 55%
    06:00 +23°C° 0 mm 2 m/s 689 mmHg 47%
    07:00 +26°C° 0 mm 3 m/s 689 mmHg 39%
    08:00 +28°C° 0 mm 3 m/s 690 mmHg 30%
    09:00 +30°C° 0 mm 3 m/s 690 mmHg 26%
    10:00 +34°C° 0 mm 4 m/s 690 mmHg 22%
    11:00 +36°C° 0 mm 4 m/s 690 mmHg 18%
    12:00 +37°C° 0 mm 4 m/s 690 mmHg 17%
    13:00 +39°C° 0 mm 3 m/s 690 mmHg 16%
    14:00 +40°C° 0 mm 3 m/s 689 mmHg 14%
    15:00 +40°C° 0 mm 4 m/s 689 mmHg 15%
    16:00 +39°C° 0 mm 5 m/s 689 mmHg 16%
    17:00 +39°C° 0 mm 7 m/s 688 mmHg 17%
    18:00 +34°C° 0 mm 6 m/s 688 mmHg 29%
    19:00 +30°C° 0 mm 5 m/s 688 mmHg 41%
    20:00 +26°C° 0 mm 4 m/s 688 mmHg 53%
    21:00 +25°C° 0 mm 4 m/s 688 mmHg 58%
    22:00 +23°C° 0 mm 4 m/s 688 mmHg 64%
    23:00 +22°C° 0 mm 3 m/s 688 mmHg 69%

    Après-demain, 23 Août, Vendredi

    Heure Température Précipitation Vent Pression Humidité
    00:00 +22°C° 0 mm 3 m/s 688 mmHg 72%
    01:00 +22°C° 0 mm 3 m/s 687 mmHg 74%
    02:00 +21°C° 0 mm 3 m/s 687 mmHg 76%
    03:00 +21°C° 0 mm 3 m/s 687 mmHg 76%
    04:00 +21°C° 0 mm 3 m/s 687 mmHg 75%
    05:00 +21°C° 0 mm 2 m/s 687 mmHg 74%
    06:00 +24°C° 0 mm 3 m/s 687 mmHg 63%
    07:00 +26°C° 0 mm 3 m/s 688 mmHg 52%
    08:00 +28°C° 0 mm 3 m/s 688 mmHg 41%
    09:00 +30°C° 0 mm 3 m/s 688 mmHg 35%
    10:00 +34°C° 0 mm 3 m/s 689 mmHg 29%
    11:00 +36°C° 0 mm 4 m/s 689 mmHg 23%
    12:00 +37°C° 0 mm 3 m/s 689 mmHg 20%
    13:00 +39°C° 0 mm 3 m/s 689 mmHg 17%
    14:00 +40°C° 0 mm 2 m/s 688 mmHg 15%
    15:00 +39°C° 0 mm 3 m/s 688 mmHg 15%
    16:00 +39°C° 0 mm 3 m/s 688 mmHg 15%
    17:00 +38°C° 0 mm 4 m/s 688 mmHg 16%
    18:00 +35°C° 0 mm 4 m/s 688 mmHg 30%
    19:00 +30°C° 0 mm 3 m/s 688 mmHg 44%
    20:00 +26°C° 0 mm 3 m/s 688 mmHg 59%
    21:00 +26°C° 0 mm 3 m/s 688 mmHg 63%
    22:00 +25°C° 0 mm 2 m/s 688 mmHg 67%
    23:00 +24°C° 0 mm 2 m/s 688 mmHg 71%

    24 Août, Samedi

    Heure Température Précipitation Vent Pression Humidité
    00:00 +23°C° 0 mm 2 m/s 687 mmHg 70%
    01:00 +23°C° 0 mm 2 m/s 687 mmHg 69%
    02:00 +23°C° 0 mm 1 m/s 687 mmHg 67%
    03:00 +22°C° 0 mm 1 m/s 687 mmHg 69%
    04:00 +22°C° 0 mm 1 m/s 687 mmHg 70%
    05:00 +22°C° 0 mm 1 m/s 687 mmHg 71%
    06:00 +24°C° 0 mm 1 m/s 688 mmHg 61%
    07:00 +27°C° 0 mm 1 m/s 689 mmHg 51%
    08:00 +29°C° 0 mm 1 m/s 689 mmHg 42%
    09:00 +32°C° 0 mm 2 m/s 690 mmHg 36%
    10:00 +35°C° 0 mm 2 m/s 690 mmHg 30%
    11:00 +37°C° 0 mm 2 m/s 690 mmHg 24%
    12:00 +38°C° 0 mm 3 m/s 690 mmHg 22%
    13:00 +39°C° 0 mm 3 m/s 690 mmHg 20%
    14:00 +40°C° 0 mm 3 m/s 690 mmHg 18%
    15:00 +39°C° 0 mm 3 m/s 689 mmHg 19%
    16:00 +39°C° 0 mm 2 m/s 689 mmHg 19%
    17:00 +38°C° 0 mm 2 m/s 689 mmHg 19%
    18:00 +35°C° 0 mm 2 m/s 689 mmHg 25%
    19:00 +33°C° 0 mm 3 m/s 689 mmHg 32%
    20:00 +29°C° 0 mm 3 m/s 689 mmHg 38%
    21:00 +28°C° 0 mm 2 m/s 689 mmHg 44%
    22:00 +27°C° 0 mm 2 m/s 689 mmHg 49%
    23:00 +26°C° 0 mm 1 m/s 689 mmHg 55%

    25 Août, Dimanche

    Heure Température Précipitation Vent Pression Humidité
    00:00 +25°C° 0 mm 1 m/s 689 mmHg 56%
    01:00 +25°C° 0 mm 1 m/s 688 mmHg 56%
    02:00 +25°C° 0 mm 1 m/s 688 mmHg 57%
    03:00 +24°C° 0 mm 1 m/s 688 mmHg 56%
    04:00 +24°C° 0 mm 1 m/s 688 mmHg 56%
    05:00 +24°C° 0 mm 1 m/s 688 mmHg 55%
    06:00 +26°C° 0 mm 1 m/s 689 mmHg 48%
    07:00 +29°C° 0 mm 1 m/s 690 mmHg 40%
    08:00 +31°C° 0 mm 1 m/s 690 mmHg 33%
    09:00 +33°C° 0 mm 1 m/s 691 mmHg 29%
    10:00 +36°C° 0 mm 2 m/s 691 mmHg 25%
    11:00 +38°C° 0 mm 2 m/s 691 mmHg 21%
    12:00 +39°C° 0 mm 2 m/s 691 mmHg 19%
    13:00 +40°C° 0 mm 3 m/s 690 mmHg 17%
    14:00 +42°C° 0 mm 4 m/s 690 mmHg 15%
    15:00 +40°C° 0 mm 3 m/s 690 mmHg 16%
    16:00 +40°C° 0 mm 3 m/s 689 mmHg 16%
    17:00 +39°C° 0 mm 2 m/s 689 mmHg 17%
    18:00 +36°C° 0 mm 3 m/s 689 mmHg 23%
    19:00 +34°C° 0 mm 3 m/s 689 mmHg 28%
    20:00 +30°C° 0 mm 3 m/s 689 mmHg 33%
    21:00 +29°C° 0 mm 3 m/s 689 mmHg 39%
    22:00 +28°C° 0 mm 3 m/s 689 mmHg 45%
    23:00 +26°C° 0 mm 2 m/s 689 mmHg 50%

    26 Août, Lundi

    Heure Température Précipitation Vent Pression Humidité
    00:00 +26°C° 0 mm 2 m/s 689 mmHg 50%
    01:00 +26°C° 0 mm 2 m/s 689 mmHg 49%
    02:00 +25°C° 0 mm 2 m/s 689 mmHg 48%
    03:00 +25°C° 0 mm 2 m/s 689 mmHg 48%
    04:00 +24°C° 0 mm 2 m/s 689 mmHg 48%
    05:00 +24°C° 0 mm 1 m/s 689 mmHg 48%
    06:00 +26°C° 0 mm 2 m/s 689 mmHg 41%
    07:00 +29°C° 0 mm 2 m/s 690 mmHg 34%
    08:00 +31°C° 0 mm 2 m/s 690 mmHg 27%
    09:00 +34°C° 0 mm 2 m/s 691 mmHg 24%
    10:00 +36°C° 0 mm 2 m/s 691 mmHg 20%
    11:00 +38°C° 0 mm 3 m/s 691 mmHg 17%
    12:00 +39°C° 0 mm 3 m/s 691 mmHg 15%
    13:00 +40°C° 0 mm 3 m/s 690 mmHg 14%
    14:00 +42°C° 0 mm 3 m/s 690 mmHg 13%
    15:00 +42°C° 0 mm 3 m/s 690 mmHg 13%
    16:00 +40°C° 0 mm 3 m/s 690 mmHg 14%
    17:00 +41°C° 0 mm 4 m/s 689 mmHg 14%
    18:00 +36°C° 0 mm 4 m/s 690 mmHg 23%
    19:00 +33°C° 0 mm 4 m/s 690 mmHg 32%
    20:00 +29°C° 0 mm 4 m/s 690 mmHg 41%
    21:00 +28°C° 0 mm 3 m/s 690 mmHg 44%
    22:00 +27°C° 0 mm 3 m/s 690 mmHg 48%
    23:00 +26°C° 0 mm 2 m/s 690 mmHg 51%
    Voir plus